Location: Linz
(48.3300°N, 14.3000°E)
Time: 08:39:16
(UTC+01:00)

Amateur Radio Satellites - All Passes

Search period start: 16 January 2018 08:09
Search period end: 17 January 2018 08:09
Location: Linz, 48.3300°N, 14.3000°E

Satellite Date Start Highest point End Downlink Frequencies (MHz)
Time Altitude Azimuth
XW-2A 16 Jan 08:12:21 08:15:46 80° 284° (WNW) 08:19:07 145.665 - 145.685
RS-15 16 Jan 08:14:19 08:25:26 42° 109° (ESE) 08:36:23 29.354- 29.394
AAUSAT CUBESAT 2 16 Jan 08:15:39 08:19:46 72° 285° (WNW) 08:23:50 437.432
SEEDS 16 Jan 08:16:33 08:20:18 33° 292° (WNW) 08:24:02 437.485
CUTE 1.7 + AOD 2 16 Jan 08:18:04 08:21:19 22° 296° (WNW) 08:24:33 437.475
ZACube-1 16 Jan 08:23:41 08:28:18 86° 286° (WNW) 08:32:51 437.345
AO-73 16 Jan 08:34:07 08:38:43 78° 285° (WNW) 08:43:14 145.935
SO-50 16 Jan 08:50:15 08:53:57 24° 327° (NNW) 08:57:43 436.795
HO-68 16 Jan 08:53:07 08:59:16 32° 304° (WNW) 09:05:22 435.675
TIGRISAT 16 Jan 08:58:51 09:03:14 85° 255° (WSW) 09:07:47 435.000
EO-88 16 Jan 09:02:45 09:04:10 12° 89° (E) 09:05:35 145.990 - 145.960
FALCONSAT 3 16 Jan 09:04:07 09:04:59 11° 185° (S) 09:05:52 435.103
CUBEBUG 2 16 Jan 09:07:17 09:09:56 15° 302° (WNW) 09:12:34 437.445
UNISAT 6 16 Jan 09:12:42 09:17:01 57° 260° (W) 09:21:28 437.425
Oscar 11 16 Jan 09:14:06 09:18:17 47° 289° (WNW) 09:22:26 .
YUBILEINY 16 Jan 09:22:41 09:30:36 36° 65° (ENE) 09:38:24 435.215
UWE-3 16 Jan 09:24:31 09:27:23 16° 301° (WNW) 09:30:16 435.000/436.395/437.385
FO-29 16 Jan 09:32:30 09:34:49 12° 275° (W) 09:37:05 435.910
NANOSAT C BR1 16 Jan 09:33:30 09:33:33 10° 55° (NE) 09:33:37 145.865
PRISM 16 Jan 09:34:05 09:38:06 63° 73° (ENE) 09:42:08 437.425
QB50P2 16 Jan 09:39:03 09:41:21 14° 59° (ENE) 09:43:40 145.880/145.840
PCSat 16 Jan 09:43:41 09:46:18 14° 103° (ESE) 09:48:55 145.827
DELFI C3 16 Jan 09:46:12 09:50:07 83° 101° (E) 09:54:02 145.870
AIST 2D 16 Jan 09:47:00 09:50:13 34° 70° (ENE) 09:53:26 435.315
O/OREOS (USA 219) 16 Jan 09:47:03 09:50:35 22° 49° (NE) 09:54:07 437.305
ZACube-1 16 Jan 10:01:43 10:03:51 13° 303° (WNW) 10:05:57 437.345
Max Valier Satellite 16 Jan 10:02:04 10:05:50 87° 103° (ESE) 10:09:32 145.860
BEESAT 3 16 Jan 10:09:31 10:11:47 15° 112° (ESE) 10:14:03 437.485
EO-79 16 Jan 10:10:41 10:14:07 25° 64° (ENE) 10:17:36 145.935-145.965
AO-73 16 Jan 10:12:29 10:14:09 12° 304° (NW) 10:15:47 145.935
DUCHIFAT 1 16 Jan 10:16:55 10:20:11 22° 63° (ENE) 10:23:29 145.980
RS-15 16 Jan 10:24:54 10:37:16 74° 313° (NW) 10:49:22 29.354- 29.394
EO-88 16 Jan 10:34:34 10:38:10 58° 286° (WNW) 10:41:44 145.990 - 145.960
SO-50 16 Jan 10:34:36 10:36:03 11° 351° (N) 10:37:29 436.795
ESTCUBE 1 16 Jan 10:36:56 10:40:05 18° 91° (E) 10:43:13 437.505/2401.250
LO-87 16 Jan 10:38:59 10:41:48 21° 93° (E) 10:44:35 145.935 - 145.965
TIGRISAT 16 Jan 10:40:29 10:40:41 10° 275° (W) 10:40:54 435.000
POLYITAN 1 16 Jan 10:43:18 10:47:23 50° 71° (ENE) 10:51:32 437.675
Oscar 19 16 Jan 10:55:30 10:58:13 14° 54° (NE) 11:00:56 437.125/150
NANOSAT C BR1 16 Jan 11:04:16 11:08:27 74° 75° (ENE) 11:12:42 145.865
PRISM 16 Jan 11:11:40 11:13:47 14° 270° (W) 11:15:53 437.425
QB50P2 16 Jan 11:12:21 11:16:34 74° 257° (WSW) 11:20:51 145.880/145.840
YUBILEINY 16 Jan 11:19:23 11:27:57 62° 268° (W) 11:36:27 435.215
AIST 2D 16 Jan 11:20:56 11:23:29 18° 268° (W) 11:26:01 435.315
DELFI C3 16 Jan 11:23:00 11:24:15 11° 301° (WNW) 11:25:30 145.870
PCSat 16 Jan 11:23:25 11:28:49 81° 123° (ESE) 11:34:17 145.827
AO-91 16 Jan 11:25:14 11:26:54 13° 61° (ENE) 11:28:34 145.960
O/OREOS (USA 219) 16 Jan 11:25:57 11:30:20 54° 249° (WSW) 11:34:40 437.305
Gurwin Techsat 1B 16 Jan 11:34:31 11:38:35 23° 59° (ENE) 11:42:40 435.225
BUGSAT 1 16 Jan 11:39:49 11:43:33 37° 68° (ENE) 11:47:22 437.445
SPROUT 16 Jan 11:41:36 11:44:52 21° 92° (E) 11:48:06 437.525
BEESAT 3 16 Jan 11:44:50 11:48:48 70° 310° (NW) 11:52:49 437.485
EO-79 16 Jan 11:45:48 11:49:42 37° 263° (W) 11:53:41 145.935-145.965
DUCHIFAT 1 16 Jan 11:51:38 11:55:36 42° 262° (W) 11:59:38 145.980
AO-7 16 Jan 12:10:47 12:16:42 22° 43° (NE) 12:22:38 .
LO-87 16 Jan 12:11:59 12:15:15 32° 291° (WNW) 12:18:30 145.935 - 145.965
ESTCUBE 1 16 Jan 12:12:49 12:17:14 54° 289° (WNW) 12:21:35 437.505/2401.250
SO-50 16 Jan 12:16:23 12:18:33 13° 16° (NNE) 12:20:44 436.795
AO-85 16 Jan 12:17:56 12:19:49 13° 109° (ESE) 12:21:44 145.980
BEESAT 2 16 Jan 12:18:59 12:23:00 77° 127° (SE) 12:27:04 435.950
POLYITAN 1 16 Jan 12:20:32 12:23:28 18° 269° (W) 12:26:25 437.675
Oscar 19 16 Jan 12:31:31 12:36:43 79° 73° (ENE) 12:41:56 437.125/150
VELOX 1 16 Jan 12:36:55 12:41:04 40° 98° (E) 12:45:13 145.980
RS-15 16 Jan 12:40:49 12:52:06 39° 344° (NNW) 13:03:00 29.354- 29.394
NANOSAT C BR1 16 Jan 12:42:52 12:44:41 12° 272° (W) 12:46:30 145.865
AO-91 16 Jan 12:59:47 13:03:02 46° 261° (W) 13:06:21 145.960
PCSat 16 Jan 13:08:24 13:12:51 25° 324° (NW) 13:17:19 145.827
DX 1 16 Jan 13:11:07 13:14:19 20° 92° (E) 13:17:31 434.975-435.025
UKube-1 16 Jan 13:12:09 13:14:04 13° 89° (E) 13:15:58 .
Gurwin Techsat 1B 16 Jan 13:12:50 13:18:06 64° 258° (WSW) 13:23:24 435.225
BUGSAT 1 16 Jan 13:15:48 13:19:01 23° 267° (W) 13:22:19 437.445
SPROUT 16 Jan 13:16:50 13:20:57 45° 290° (WNW) 13:25:03 437.525
YUBILEINY 16 Jan 13:19:10 13:22:49 13° 291° (WNW) 13:26:28 435.215
BEESAT 3 16 Jan 13:24:34 13:27:02 16° 331° (NNW) 13:29:29 437.485
ITAMSAT 1 16 Jan 13:27:43 13:31:18 19° 57° (ENE) 13:34:53 435.822/435.867
AO-85 16 Jan 13:55:28 13:59:29 79° 309° (NW) 14:03:51 145.980
SO-50 16 Jan 13:56:07 14:00:22 34° 39° (NE) 14:04:41 436.795
BEESAT 2 16 Jan 13:58:08 14:01:11 20° 326° (NNW) 14:04:15 435.950
AO-7 16 Jan 13:59:51 14:08:08 71° 65° (ENE) 14:16:28 .
Oscar 19 16 Jan 14:13:29 14:16:39 16° 272° (W) 14:19:50 437.125/150
VELOX 1 16 Jan 14:13:45 14:17:19 25° 296° (WNW) 14:20:53 145.980
50 SAT 16 Jan 14:14:31 14:17:39 85° 290° (WNW) 14:20:47 437.505
M-CUBED/EXP-1 PRIME 16 Jan 14:23:27 14:26:55 23° 59° (ENE) 14:30:14 437.505
BEESAT 16 Jan 14:39:07 14:42:29 19° 91° (E) 14:45:50 436.000
UKube-1 16 Jan 14:46:17 14:50:36 75° 286° (WNW) 14:54:53 .
DX 1 16 Jan 14:46:34 14:50:45 47° 290° (WNW) 14:54:55 434.975-435.025
PCSat 16 Jan 14:56:38 14:58:17 11° 349° (N) 14:59:57 145.827
RS-15 16 Jan 14:57:17 15:08:26 40° 18° (NNE) 15:19:03 29.354- 29.394
ITAMSAT 1 16 Jan 15:05:03 15:10:12 75° 256° (WSW) 15:15:25 435.822/435.867
CUBESAT XI-V 16 Jan 15:07:11 15:10:06 16° 89° (E) 15:12:59 437.345
MOZHAYETS 4 16 Jan 15:17:24 15:22:04 70° 102° (ESE) 15:26:41
ITUPSAT 1 16 Jan 15:32:25 15:37:10 55° 101° (E) 15:41:53 437.325
SO-50 16 Jan 15:36:29 15:40:59 46° 239° (WSW) 15:45:32 436.795
AO-85 16 Jan 15:37:42 15:40:40 18° 332° (NNW) 15:43:47 145.980
DOVE 4 16 Jan 15:43:06 15:47:25 64° 73° (ENE) 15:51:36 437.250
LilacSat-2 16 Jan 15:46:36 15:48:15 12° 60° (ENE) 15:49:54 437.200
HO-68 16 Jan 15:52:54 15:57:24 18° 47° (NE) 16:01:53 435.675
AO-7 16 Jan 15:54:25 16:01:33 31° 266° (W) 16:08:46 .
XW-2C 16 Jan 15:55:22 15:57:24 14° 61° (ENE) 15:59:25 145.795 - 145.815
M-CUBED/EXP-1 PRIME 16 Jan 15:56:48 16:01:05 46° 255° (WSW) 16:05:08 437.505
CUTE-I 16 Jan 16:01:19 16:05:14 21° 58° (ENE) 16:09:09 437.470
BEESAT 16 Jan 16:15:55 16:20:39 60° 289° (WNW) 16:25:22 436.000
UKube-1 16 Jan 16:24:54 16:25:51 11° 305° (NW) 16:26:48 .
XW-2F 16 Jan 16:35:25 16:38:49 31° 69° (ENE) 16:42:14 145.980 - 146.000
XW-2D 16 Jan 16:40:10 16:43:45 39° 70° (ENE) 16:47:21 145.860 - 145.880
PCSat 16 Jan 16:42:00 16:44:17 12° 16° (NNE) 16:46:33 145.827
KAITUO 1B 16 Jan 16:43:15 16:46:34 30° 68° (ENE) 16:49:53 145.475/437.950
CUBESAT XI-V 16 Jan 16:43:19 16:47:55 65° 288° (WNW) 16:52:29 437.345
BEESAT 3 16 Jan 16:45:15 16:45:41 10° 19° (NNE) 16:46:07 437.485
ITAMSAT 1 16 Jan 16:49:23 16:50:34 11° 275° (W) 16:51:45 435.822/435.867
MOZHAYETS 4 16 Jan 16:55:41 16:58:42 17° 301° (WNW) 17:01:42
CUBEBUG 2 16 Jan 16:56:27 16:58:53 15° 58° (ENE) 17:01:22 437.445
XW-2B 16 Jan 16:57:20 17:01:07 58° 73° (ENE) 17:04:54 145.730 - 145.750
NUDT-PHONESAT 16 Jan 17:03:49 17:07:25 46° 72° (ENE) 17:11:02 437.300
ITUPSAT 1 16 Jan 17:10:56 17:14:39 22° 299° (WNW) 17:18:20 437.325
RS-15 16 Jan 17:11:03 17:23:02 78° 48° (NE) 17:34:18 29.354- 29.394
UWE-3 16 Jan 17:13:28 17:15:33 13° 57° (ENE) 17:17:39 435.000/436.395/437.385
LilacSat-2 16 Jan 17:18:06 17:21:59 74° 259° (W) 17:25:52 437.200
AO-85 16 Jan 17:22:36 17:22:56 10° 357° (N) 17:23:15 145.980
DOVE 4 16 Jan 17:23:12 17:25:32 14° 270° (W) 17:27:49 437.250
KKS-1 16 Jan 17:25:07 17:29:31 56° 101° (ESE) 17:33:54 437.445
XW-2C 16 Jan 17:27:17 17:31:06 62° 259° (W) 17:34:56 145.795 - 145.815
AAUSAT CUBESAT 2 16 Jan 17:35:35 17:37:49 14° 60° (ENE) 17:40:04 437.432
SEEDS 16 Jan 17:35:52 17:39:32 30° 67° (ENE) 17:43:13 437.485
HO-68 16 Jan 17:36:50 17:43:55 69° 68° (ENE) 17:51:02 435.675
CUTE 1.7 + AOD 2 16 Jan 17:37:22 17:41:29 48° 71° (ENE) 17:45:37 437.475
CUTE-I 16 Jan 17:39:29 17:44:47 69° 257° (WSW) 17:50:07 437.470
ZACube-1 16 Jan 17:48:30 17:51:09 16° 59° (ENE) 17:53:51 437.345
STARS 16 Jan 17:56:19 18:00:37 48° 100° (E) 18:04:53 437.465
BEESAT 16 Jan 17:56:59 17:57:27 10° 308° (NW) 17:57:56 436.000
AO-73 16 Jan 17:58:20 18:01:13 17° 60° (ENE) 18:04:09 145.935
XW-2F 16 Jan 18:09:51 18:12:57 23° 266° (W) 18:16:04 145.980 - 146.000
XW-2D 16 Jan 18:15:18 18:18:04 19° 268° (W) 18:20:51 145.860 - 145.880
KAITUO 1B 16 Jan 18:17:26 18:20:33 24° 266° (W) 18:23:40 145.475/437.950
BEESAT 3 16 Jan 18:20:49 18:24:24 32° 41° (NE) 18:27:55 437.485
CUBESAT XI-V 16 Jan 18:23:56 18:24:22 10° 307° (NW) 18:24:48 437.345
PCSat 16 Jan 18:24:38 18:29:28 31° 41° (NE) 18:34:17 145.827
CUBEBUG 2 16 Jan 18:30:33 18:34:53 77° 258° (WSW) 18:39:23 437.445
XW-2B 16 Jan 18:33:46 18:35:39 13° 271° (W) 18:37:31 145.730 - 145.750
Oscar 11 16 Jan 18:36:46 18:40:18 25° 64° (ENE) 18:43:51 .
NUDT-PHONESAT 16 Jan 18:39:12 18:41:29 15° 269° (W) 18:43:48 437.300
XW-2A 16 Jan 18:46:10 18:49:32 57° 74° (ENE) 18:52:56 145.665 - 145.685
UWE-3 16 Jan 18:46:53 18:51:16 90° 263° (W) 18:55:50 435.000/436.395/437.385
FO-29 16 Jan 18:50:03 18:51:42 11° 84° (E) 18:53:20 435.910
BEESAT 2 16 Jan 18:55:51 18:59:14 25° 37° (NE) 19:02:34 435.950
KKS-1 16 Jan 19:02:31 19:05:41 19° 300° (WNW) 19:08:51 437.445
AO-85 16 Jan 19:02:39 19:05:21 15° 22° (NNE) 19:08:08 145.980
NO-84 16 Jan 19:04:37 19:07:27 44° 142° (SE) 19:10:11 435.350 FM
AAUSAT CUBESAT 2 16 Jan 19:08:37 19:12:46 70° 259° (W) 19:16:54 437.432
STRAND 1 16 Jan 19:11:15 19:16:08 41° 98° (E) 19:20:58 437.568
SEEDS 16 Jan 19:11:26 19:15:10 30° 265° (W) 19:18:56 437.485
CUTE 1.7 + AOD 2 16 Jan 19:14:29 19:17:34 19° 269° (W) 19:20:39 437.475
ZACube-1 16 Jan 19:22:27 19:26:51 74° 257° (WSW) 19:31:24 437.345
RS-15 16 Jan 19:24:19 19:34:27 37° 254° (WSW) 19:44:09 29.354- 29.394
HO-68 16 Jan 19:26:17 19:32:13 28° 268° (W) 19:38:11 435.675
AO-73 16 Jan 19:32:33 19:36:56 66° 259° (WSW) 19:41:27 145.935
STARS 16 Jan 19:33:17 19:36:39 22° 298° (WNW) 19:40:00 437.465
EO-88 16 Jan 19:44:55 19:45:30 10° 59° (ENE) 19:46:03 145.990 - 145.960
BEESAT 3 16 Jan 19:58:21 20:01:55 34° 241° (WSW) 20:05:26 437.485
PCSat 16 Jan 20:07:52 20:13:12 58° 242° (WSW) 20:18:30 145.827
Oscar 11 16 Jan 20:12:08 20:16:14 40° 263° (W) 20:20:22 .
XW-2A 16 Jan 20:21:39 20:22:34 11° 271° (W) 20:23:29 145.665 - 145.685
UWE-3 16 Jan 20:27:20 20:28:26 11° 275° (W) 20:29:34 435.000/436.395/437.385
FO-29 16 Jan 20:32:27 20:37:50 84° 106° (ESE) 20:43:01 435.910
BEESAT 2 16 Jan 20:33:16 20:37:13 53° 237° (WSW) 20:41:04 435.950
DELFI C3 16 Jan 20:34:18 20:38:12 76° 74° (ENE) 20:42:08 145.870
NO-84 16 Jan 20:42:02 20:44:40 31° 341° (NNW) 20:47:15 435.350 FM
AO-85 16 Jan 20:42:17 20:46:54 44° 44° (NE) 20:51:49 145.980
Max Valier Satellite 16 Jan 20:43:41 20:47:23 64° 74° (ENE) 20:51:07 145.860
TIGRISAT 16 Jan 20:47:21 20:50:26 17° 89° (E) 20:53:30 435.000
STRAND 1 16 Jan 20:50:42 20:55:11 31° 296° (WNW) 20:59:39 437.568
UNISAT 6 16 Jan 21:00:40 21:04:30 24° 93° (E) 21:08:20 437.425
EO-88 16 Jan 21:14:52 21:18:31 82° 257° (WSW) 21:22:13 145.990 - 145.960
LO-87 16 Jan 21:18:48 21:21:01 16° 63° (ENE) 21:23:14 145.935 - 145.965
ESTCUBE 1 16 Jan 21:39:35 21:43:23 27° 64° (ENE) 21:47:11 437.505/2401.250
DELFI C3 16 Jan 22:12:34 22:13:27 11° 273° (W) 22:14:19 145.870
FO-29 16 Jan 22:18:59 22:22:14 16° 306° (NW) 22:25:23 435.910
NO-84 16 Jan 22:20:10 22:22:24 21° 3° (N) 22:24:39 435.350 FM
Max Valier Satellite 16 Jan 22:20:17 22:21:37 11° 272° (W) 22:22:55 145.860
AO-85 16 Jan 22:22:49 22:27:19 36° 242° (WSW) 22:32:02 145.980
TIGRISAT 16 Jan 22:22:52 22:27:31 65° 288° (WNW) 22:32:11 435.000
YUBILEINY 16 Jan 22:28:58 22:36:37 35° 83° (E) 22:44:15 435.215
UNISAT 6 16 Jan 22:36:55 22:41:22 45° 291° (WNW) 22:45:50 437.425
SPROUT 16 Jan 22:38:08 22:41:36 25° 65° (ENE) 22:45:07 437.525
AIST 2D 16 Jan 22:41:03 22:43:58 24° 95° (E) 22:46:51 435.315
PRISM 16 Jan 22:46:28 22:50:31 60° 102° (ESE) 22:54:32 437.425
ISS 16 Jan 22:48:09 22:51:06 32° 145° (SE) 22:54:04 437.550
LO-87 16 Jan 22:50:40 22:54:04 44° 261° (W) 22:57:32 145.935 - 145.965
QB50P2 16 Jan 22:54:40 22:57:01 14° 89° (E) 22:59:22 145.880/145.840
nSIGHT-1 16 Jan 22:55:08 22:58:12 48° 149° (SSE) 23:01:16 .
ESTCUBE 1 16 Jan 23:15:47 23:20:02 39° 263° (W) 23:24:17 437.505/2401.250
EO-79 16 Jan 23:26:28 23:30:07 26° 94° (E) 23:33:45 145.935-145.965
DUCHIFAT 1 16 Jan 23:31:51 23:35:17 23° 93° (E) 23:38:42 145.980
VELOX 1 16 Jan 23:37:14 23:41:32 57° 71° (ENE) 23:45:51 145.980
NO-84 16 Jan 23:57:20 00:00:04 42° 24° (NNE) 00:02:52 435.350 FM
POLYITAN 1 16 Jan 23:59:42 00:03:57 57° 100° (E) 00:08:11 437.675
TIGRISAT 17 Jan 00:02:30 00:03:18 10° 306° (NW) 00:04:06 435.000
O/OREOS (USA 219) 17 Jan 00:06:29 00:07:20 10° 96° (E) 00:08:12 437.305
UKube-1 17 Jan 00:09:31 00:12:30 19° 61° (ENE) 00:15:31 .
DX 1 17 Jan 00:09:48 00:13:30 28° 65° (ENE) 00:17:13 434.975-435.025
SPROUT 17 Jan 00:13:24 00:17:20 37° 263° (W) 00:21:18 437.525
AIST 2D 17 Jan 00:14:10 00:17:05 25° 292° (WNW) 00:19:58 435.315
NANOSAT C BR1 17 Jan 00:20:09 00:24:27 82° 103° (ESE) 00:28:44 145.865
PRISM 17 Jan 00:22:53 00:25:21 16° 300° (WNW) 00:27:49 437.425
ISS 17 Jan 00:24:11 00:27:26 64° 343° (NNW) 00:30:43 437.550
YUBILEINY 17 Jan 00:24:12 00:32:55 62° 285° (WNW) 00:41:41 435.215
QB50P2 17 Jan 00:28:58 00:33:14 66° 287° (WNW) 00:37:29 145.880/145.840
nSIGHT-1 17 Jan 00:31:16 00:34:23 52° 349° (N) 00:37:31 .
Oscar 19 17 Jan 00:40:06 00:43:58 21° 91° (E) 00:47:47 437.125/150
50 SAT 17 Jan 00:42:09 00:45:07 44° 72° (ENE) 00:48:06 437.505
AO-91 17 Jan 00:44:27 00:47:47 22° 95° (E) 00:51:22 145.960
MOZHAYETS 4 17 Jan 00:47:56 00:50:33 15° 58° (ENE) 00:53:12
BUGSAT 1 17 Jan 00:52:30 00:56:29 38° 98° (E) 01:00:27 437.445
EO-79 17 Jan 01:02:01 01:05:56 35° 292° (WNW) 01:09:48 145.935-145.965
DUCHIFAT 1 17 Jan 01:07:05 01:11:03 39° 292° (WNW) 01:15:02 145.980
ITUPSAT 1 17 Jan 01:07:22 01:10:07 15° 56° (ENE) 01:12:53 437.325
VELOX 1 17 Jan 01:15:25 01:18:20 17° 269° (W) 01:21:14 145.980
Gurwin Techsat 1B 17 Jan 01:25:17 01:30:15 38° 97° (E) 01:35:11 435.225
NO-84 17 Jan 01:34:34 01:37:08 28° 221° (SW) 01:39:48 435.350 FM
POLYITAN 1 17 Jan 01:36:23 01:39:20 18° 299° (WNW) 01:42:16 437.675
O/OREOS (USA 219) 17 Jan 01:41:27 01:45:57 85° 119° (ESE) 01:50:30 437.305
UKube-1 17 Jan 01:43:55 01:48:08 55° 259° (W) 01:52:23 .
DX 1 17 Jan 01:45:39 01:49:35 34° 263° (W) 01:53:33 434.975-435.025
BEESAT 17 Jan 01:48:34 01:52:49 33° 65° (ENE) 01:57:05 436.000
NANOSAT C BR1 17 Jan 01:57:28 01:59:33 13° 302° (WNW) 02:01:38 145.865
AO-7 17 Jan 01:58:58 02:04:01 17° 86° (E) 02:09:01 .
ISS 17 Jan 02:01:01 02:04:12 45° 4° (N) 02:07:23 437.550
nSIGHT-1 17 Jan 02:07:45 02:10:52 48° 9° (N) 02:13:59 .
CUBESAT XI-V 17 Jan 02:13:29 02:17:20 26° 64° (ENE) 02:21:11 437.345
50 SAT 17 Jan 02:16:14 02:17:06 11° 269° (W) 02:17:59 437.505
Oscar 19 17 Jan 02:18:35 02:23:42 61° 290° (WNW) 02:28:47 437.125/150
AO-91 17 Jan 02:20:28 02:24:21 42° 289° (WNW) 02:28:38 145.960
MOZHAYETS 4 17 Jan 02:22:27 02:27:05 82° 256° (WSW) 02:31:46
YUBILEINY 17 Jan 02:26:45 02:31:55 16° 310° (NW) 02:37:06 435.215
BUGSAT 1 17 Jan 02:28:12 02:31:39 25° 296° (WNW) 02:35:06 437.445
ITUPSAT 1 17 Jan 02:42:30 02:47:17 85° 256° (WSW) 02:52:07 437.325
KKS-1 17 Jan 02:53:17 02:54:57 12° 55° (NE) 02:56:36 437.445
Gurwin Techsat 1B 17 Jan 03:05:21 03:10:09 35° 296° (WNW) 03:14:55 435.225
ITAMSAT 1 17 Jan 03:14:23 03:18:52 29° 95° (E) 03:23:21 435.822/435.867
O/OREOS (USA 219) 17 Jan 03:23:10 03:26:01 16° 315° (NW) 03:28:51 437.305
BEESAT 17 Jan 03:26:14 03:30:33 34° 263° (W) 03:34:55 436.000
ISS 17 Jan 03:37:34 03:40:52 85° 204° (SSW) 03:44:09 437.550
DOVE 4 17 Jan 03:39:17 03:40:59 12° 88° (E) 03:42:41 437.250
nSIGHT-1 17 Jan 03:43:58 03:47:07 59° 208° (SSW) 03:50:15 .
AO-7 17 Jan 03:49:49 03:58:15 74° 107° (ESE) 04:06:35 .
CUBESAT XI-V 17 Jan 03:49:59 03:54:29 44° 262° (W) 03:59:00 437.345
Oscar 19 17 Jan 04:00:26 04:01:59 11° 309° (NW) 04:03:34 437.125/150
MOZHAYETS 4 17 Jan 04:04:13 04:04:59 10° 275° (W) 04:05:45
ITUPSAT 1 17 Jan 04:24:19 04:25:51 11° 274° (W) 04:27:24 437.325
KKS-1 17 Jan 04:26:21 04:30:46 82° 75° (ENE) 04:35:13 437.445
ITAMSAT 1 17 Jan 04:53:33 04:58:29 44° 293° (WNW) 05:03:24 435.822/435.867
STRAND 1 17 Jan 04:54:33 04:57:20 15° 54° (NE) 05:00:07 437.568
STARS 17 Jan 04:56:02 05:00:22 68° 72° (ENE) 05:04:43 437.465
XW-2C 17 Jan 04:58:17 04:59:10 11° 88° (E) 05:00:02 145.795 - 145.815
M-CUBED/EXP-1 PRIME 17 Jan 05:05:53 05:09:23 66° 107° (ESE) 05:12:41 437.505
FO-29 17 Jan 05:06:56 05:09:43 13° 51° (NE) 05:12:23 435.910
ISS 17 Jan 05:14:40 05:16:58 18° 221° (SW) 05:19:15 437.550
DOVE 4 17 Jan 05:14:57 05:19:10 76° 286° (WNW) 05:23:34 437.250
nSIGHT-1 17 Jan 05:21:44 05:22:44 11° 225° (SW) 05:23:44 .
XW-2F 17 Jan 05:37:26 05:40:39 26° 95° (E) 05:43:49 145.980 - 146.000
XW-2D 17 Jan 05:42:46 05:46:14 34° 97° (E) 05:49:40 145.860 - 145.880
AO-7 17 Jan 05:43:12 05:50:24 34° 308° (NW) 05:57:35 .
KAITUO 1B 17 Jan 05:44:10 05:47:15 24° 94° (E) 05:50:16 145.475/437.950
CUTE-I 17 Jan 05:52:47 05:57:41 36° 97° (E) 06:02:32 437.470
SO-50 17 Jan 05:54:42 05:58:11 23° 114° (ESE) 06:01:44 436.795
XW-2B 17 Jan 06:00:02 06:03:45 51° 100° (E) 06:07:24 145.730 - 145.750
NUDT-PHONESAT 17 Jan 06:03:40 06:07:08 37° 98° (E) 06:10:33 437.300
KKS-1 17 Jan 06:06:11 06:07:55 12° 272° (W) 06:09:38 437.445
CUBEBUG 2 17 Jan 06:18:00 06:21:26 20° 90° (E) 06:24:52 437.445
LilacSat-2 17 Jan 06:21:40 06:25:31 81° 283° (WNW) 06:29:16 437.200
XW-2C 17 Jan 06:30:02 06:33:48 70° 286° (WNW) 06:37:32 145.795 - 145.815
STRAND 1 17 Jan 06:30:39 06:35:45 84° 75° (ENE) 06:40:53 437.568
UWE-3 17 Jan 06:33:39 06:36:34 16° 88° (E) 06:39:28 435.000/436.395/437.385
STARS 17 Jan 06:34:49 06:37:10 14° 271° (W) 06:39:32 437.465
M-CUBED/EXP-1 PRIME 17 Jan 06:41:51 06:43:15 12° 308° (NW) 06:44:38 437.505
FO-29 17 Jan 06:46:59 06:53:47 59° 70° (ENE) 06:59:48 435.910
HO-68 17 Jan 06:47:58 06:54:56 51° 100° (E) 07:01:51 435.675
AAUSAT CUBESAT 2 17 Jan 06:48:06 06:50:19 14° 89° (E) 06:52:31 437.432
SEEDS 17 Jan 06:50:53 06:54:41 33° 96° (E) 06:58:26 437.485
CUTE 1.7 + AOD 2 17 Jan 06:53:56 06:58:07 58° 100° (E) 07:02:16 437.475
DOVE 4 17 Jan 06:55:52 06:56:11 10° 303° (WNW) 06:56:30 437.250
ZACube-1 17 Jan 07:07:43 07:10:56 18° 90° (E) 07:14:07 437.345
XW-2F 17 Jan 07:11:30 07:14:42 27° 293° (WNW) 07:17:52 145.980 - 146.000
XW-2D 17 Jan 07:17:17 07:20:14 22° 295° (WNW) 07:23:09 145.860 - 145.880
AO-73 17 Jan 07:17:20 07:20:43 20° 91° (E) 07:24:04 145.935
KAITUO 1B 17 Jan 07:17:59 07:21:13 28° 292° (WNW) 07:24:24 145.475/437.950
CUTE-I 17 Jan 07:32:52 07:37:44 37° 295° (WNW) 07:42:35 437.470
SO-50 17 Jan 07:33:54 07:38:19 56° 314° (NW) 07:42:49 436.795
XW-2B 17 Jan 07:35:13 07:37:31 16° 298° (WNW) 07:39:49 145.730 - 145.750
XW-2A 17 Jan 07:36:31 07:39:40 34° 98° (E) 07:42:45 145.665 - 145.685
NUDT-PHONESAT 17 Jan 07:38:03 07:40:43 19° 296° (WNW) 07:43:23 437.300
AO-7 17 Jan 07:38:22 07:40:37 11° 333° (NNW) 07:42:54 .
RS-15 17 Jan 07:39:34 07:49:50 33° 104° (ESE) 07:59:58 29.354- 29.394
TIGRISAT 17 Jan 07:49:26 07:52:50 22° 62° (ENE) 07:56:19 435.000
CUBEBUG 2 17 Jan 07:53:43 07:58:22 57° 288° (WNW) 08:03:02 437.445
Oscar 11 17 Jan 07:55:30 07:59:17 28° 95° (E) 08:03:02 .
